Location: ??????
(36.0418°N, 43.6351°E)
Time: 04:27:26
(UTC+00:00)

Cosmos 883 Rocket - Pass Details

Date: 25 June 2021
Orbit: 950 x 996 km, 83.0° (Epoch: 27 July)

Event Time Altitude Azimuth Distance (km) Brightness Sun altitude
Rises 22:17:31 0° 12° (NNE) 3,630 8.7 -28.4°
Reaches altitude 10° 22:21:01 10° 32° (NNE) 2,679 7.7 -28.2°
Maximum altitude 22:24:53 17° 71° (ENE) 2,200 6.7 -27.9°
Drops below altitude 10° 22:28:43 10° 111° (ESE) 2,672 6.8 -27.6°
Enters shadow 22:30:30 - 122° (ESE) 3,125 7.0 -27.5°
